Regional Weather Roundup
Issued by NWS Jackson, KY

Home | Current Version | Previous Version | Text Only | Print | Product List | Glossary On
Versions: 1 2 3 4 5 6 7 8 9 10 11 12 13 14 15 16 17 18 19 20 21 22 23 24 25 26 27
000
ASUS43 KJKL 150910
RWRJKL

EAST KENTUCKY HOURLY WEATHER ROUNDUP
NATIONAL WEATHER SERVICE JACKSON KY
400 AM EST FRI DEC 15 2017

NOTE: "FAIR" INDICATES FEW OR NO CLOUDS BELOW 12,000 FEET WITH
NO SIGNIFICANT WEATHER AND/OR OBSTRUCTIONS TO VISIBILITY.

* THESE REPORTS ARE NOT UNDER NWS QUALITY CONTROL AND MAY NOT
  REPORT WEATHER SUCH AS PRECIPITATION AND FOG.

KYZ079-080-083-085-087-088-110-112-115-119-120-151000
...EASTERN KENTUCKY...

CITY           SKY/WX    TMP DP  RH WIND       PRES   REMARKS
JACKSON        CLOUDY    29  21  72 CALM      29.99F
LONDON         CLOUDY    31  22  69 CALM      30.02R
SOMERSET*      CLOUDY    30  21  69 CALM      30.05S
MONTICELLO*    CLOUDY    31  24  75 NW7       30.05S WCI  24
WILLIAMSBURG*  CLOUDY    32  27  80 CALM      30.01S
MIDDLESBORO*   CLOUDY    25  23  94 CALM      30.01F
HARLAN APT*    CLOUDY    32  27  80 CALM      29.99S
PIKE CO APT*   CLOUDY    28  22  76 CALM      29.99S
BIG SANDY APT* CLOUDY    28  21  75 CALM      30.00F
MOREHEAD APT*  CLOUDY    25  18  74 CALM      30.03F
$$

KYZ035-036-041-042-044-050-067-078-099-151000
...CENTRAL KENTUCKY...

CITY           SKY/WX    TMP DP  RH WIND       PRES   REMARKS
MT STERLING*   CLOUDY    25  19  80 CALM      30.04S
FLEMING/MASON* CLOUDY    22  19  86 CALM      30.04F
DANVILLE*      CLOUDY    27  19  74 CALM      30.05S
LEXINGTON      CLOUDY    26  18  71 CALM      30.04S
FRANKFORT      CLOUDY    25  17  72 CALM      30.04S
LOUISVILLE     CLOUDY    29  18  63 CALM      30.06F
LEBANON*       CLOUDY    28  19  69 CALM      30.06R
GLASGOW*       CLOUDY    31  22  71 CALM      30.06S
BOWLING GREEN  CLOUDY    32  22  66 NW6       30.08S WCI  26
$$

KYZ091>093-OHZ055-061-077-WVZ005-015-034-035-042-151000
...SOUTHERN OHIO/WEST VIRGINIA...

CITY           SKY/WX    TMP DP  RH WIND       PRES   REMARKS
COVINGTON      CLOUDY    23  18  81 SW3       30.03S
COLUMBUS       CLOUDY    20  16  84 CALM      30.03F
DAYTON         CLOUDY    19  17  92 S5        30.02S WCI  12
WILMINGTON     PTCLDY    21  17  84 CALM      30.01F
HUNTINGTON     CLOUDY    25  17  72 CALM      30.03F
CHARLESTON     CLOUDY    28  19  69 CALM      30.00F
PINEVILLE*     CLOUDY    31  25  78 MISG      30.01F
BECKLEY        CLOUDY    27  20  75 S3        29.92F
BLUEFIELD      CLOUDY    24  20  84 CALM      29.91F
LOGAN CO APT*  CLOUDY    28  23  80 CALM      29.97S
$$

VAZ002-007-008-TNZ017-027-036-066-071-151000
...SOUTHWEST VIRGINIA/EAST TENNESSEE...

CITY           SKY/WX    TMP DP  RH WIND       PRES   REMARKS
WISE*          CLOUDY    30  27  86 CALM      29.94S
JONESVILLE*    CLOUDY    28  27  93 CALM      30.01F
ABINGDON*      CLEAR     25  23  91 CALM      29.95F
BRISTOL        CLEAR     22  22 100 CALM      29.99S
MORRISTOWN*    CLOUDY    27  25  93 CALM      29.99F
SEVIERVILLE*   PTSUNNY   27  25  93 CALM      30.02S
KNOXVILLE      MOCLDY    29  27  92 CALM      30.02S
LAFOLLETTE*    CLOUDY    32  28  86 CALM      30.04F
OAK RIDGE      MOCLDY    31  27  85 CALM      30.03F
CROSSVILLE     PTCLDY    25  21  85 W3        29.98F
NASHVILLE      CLOUDY    33  21  61 NW6       30.09S WCI  28
$$

...KEY TO REMARKS...
VSB - VISIBILITY IN MILES
WCI - WIND CHILL INDEX
HX  - HEAT INDEX

$$




USA.gov is the U.S. government's official web portal to all federal, state and local government web resources and services.